Location: Brno
(49.2000°N, 16.6330°E)
Time: 03:52:11
(UTC+02:00)

Cosmos 2227 - Visible Passes

Search period start: 17 October 2017 00:00
Search period end: 27 October 2017 00:00
Orbit: 834 x 862 km, 71.0° (Epoch: 16 October)

Date Brightness Start Highest point End Pass type
(mag) Time Alt. Az. Time Alt. Az. Time Alt. Az.
17 Oct 6.7 05:43:59 10° N 05:47:04 15° NNE 05:50:10 10° ENE visible
18 Oct 6.7 05:30:51 10° N 05:33:55 14° NNE 05:36:59 10° ENE visible
19 Oct 6.7 05:17:45 10° N 05:20:46 14° NNE 05:23:48 10° ENE visible
20 Oct 6.7 05:04:38 10° N 05:07:38 14° NNE 05:10:37 10° ENE visible
21 Oct 6.8 04:51:32 10° N 04:54:29 14° NNE 04:57:26 10° ENE visible
21 Oct 5.3 06:34:40 10° NNW 06:40:13 47° NE 06:45:45 10° SE visible
22 Oct 6.8 04:38:25 10° N 04:41:21 14° NNE 04:44:16 10° ENE visible
22 Oct 5.3 06:21:32 10° NNW 06:27:05 46° NE 06:32:37 10° SE visible
23 Oct 6.8 04:25:19 10° N 04:28:12 14° NNE 04:31:05 10° ENE visible
23 Oct 5.3 06:08:26 10° NNW 06:13:57 45° NE 06:19:29 10° SE visible
24 Oct 6.8 04:12:13 10° N 04:15:03 14° NNE 04:17:54 10° ENE visible
24 Oct 5.3 05:55:18 10° NNW 06:00:50 45° NE 06:06:20 10° SE visible
25 Oct 6.9 03:59:06 10° N 04:01:55 14° NNE 04:04:43 10° ENE visible
25 Oct 5.3 05:42:12 10° NNW 05:47:42 44° NE 05:53:12 10° SE visible
26 Oct 6.9 03:46:00 10° N 03:48:46 13° NNE 03:51:33 10° ENE visible
26 Oct 5.3 05:29:05 10° NNW 05:34:35 44° NE 05:40:04 10° SE visible
